Погода в Нагано

Япония     36°35′55″N   138°11′23″E
темп.,
°C
ветер,
м/с
пор.,
м/с
влажн.,
%
обл.,
%
осадки,
мм/ч
давл.,
гПа
погр.,
м
13 июня, вс
вс1300:00+15юв1187100 0.0 101619
03:00+15ююв1187100 0.0 101515
06:00+16ююв0184100 0.0 101592
09:00+22зсз2160100 0.0 1013881
12:00+20ссз2171100 0.4 1011350
15:00+22с1165100 0.7 1010562
18:00+18с1191100 2.2 101018
21:00+16ссз1197100 3.9 101139
14 июня, пн
пн1400:00+16ю0097100 2.1 101030
03:00+15всв0099100 5.3 101014
06:00+16с119875 2.1 101083
09:00+18сз1090100 3.8 1009393
12:00+21в1179100 2.8 1007720
15:00+21ссв1179100 6.3 1006623
18:00+19в11914 3.8 100643
21:00+14вюв22965 6.0 100841
15 июня, вт
вт1500:00+13вюв11960 0.1 100820
03:00+13юв1195100 0.1 100714
06:00+15юв129398 0.0 100892
09:00+21з116738 0.1 1007860
12:00+23юв1265100 1.4 10061098
15:00+21св1181100 3.9 1006307
18:00+17вюв2290100 5.9 100842
21:00+15ююв1195100 9.0 101026
16 июня, ср
ср1600:00+15юв2397100 1.1 101076
03:00+14юв129565 1.3 101037
06:00+15ююв1293100 0.1 101091
09:00+19ююв1374100 0.9 1009468
12:00+17с2287100 0.7 100991
15:00+16с1190100 1.3 1010219
18:00+16ююз0093100 0.9 101037
21:00+15ююв129563 1.3 101164
17 июня, чт
чт1700:00+14ююв129832 0.3 101057
03:00+14ю119784 0.5 101025
06:00+15юз119584 0.1 101093
09:00+19зюз1174100 0.1 1009675
12:00+22сз2155100 0.1 10071225
15:00+21ссз226079 0.1 1006918
18:00+19всв1187100 1.1 100736
21:00+15вюв229599 1.8 100936